Watsonville, CA

1:59 AM PDT on July 23, 2017 (GMT -0700)
Watsonville Municipal

Weather History for KWVI - October, 2012

Change the Weather History Date:

Monday, October 8, 2012

  Actual Average Record
Temperature  
Mean Temperature 59 °F 61 °F  
Max Temperature 69 °F 73 °F 91 °F (2015)
Min Temperature 48 °F 49 °F 43 °F (2007)
Degree Days  
Heating Degree Days 6    
Month to date heating degree days 21  
Since 1 July heating degree days 386  
Cooling Degree Days 0    
Month to date cooling degree days 28  
Year to date cooling degree days 54  
Growing Degree Days 8 (Base 50)    
Moisture  
Dew Point 51 °F    
Average Humidity 73    
Maximum Humidity 93    
Minimum Humidity 53    
Precipitation  
Precipitation 0.00 in - 0.57 in (1973)
Month to date precipitation 0.00  
Year to date precipitation 11.98  
Since 1 July precipitation 0.05  
Sea Level Pressure  
Sea Level Pressure 30.03 in    
Wind  
Wind Speed 5 mph (West)    
Max Wind Speed 15 mph    
Max Gust Speed 21 mph    
Visibility 10 miles    
Events      
T = Trace of Precipitation, MM = Missing Value Source: NWS Daily Summary

Daily Weather History Graph

Daily Weather History Graph

Search for Another Location

Airport or City:

Trip Planner

Search our weather history database for the weather conditions in past years. The results will help you decide how hot, cold, wet, or windy it might be!

Date:

Astronomy

Oct. 08, 2012 Rise Set
Actual Time 7:09 AM PDT 6:39 PM PDT
Civil Twilight 6:43 AM PDT 7:05 PM PDT
Nautical Twilight 6:12 AM PDT 7:35 PM PDT
Astronomical Twilight 5:42 AM PDT 8:05 PM PDT
Moon 12:03 AM PDT (10/8) 2:23 PM PDT (10/8)
Length of Visible Light 12h 22m
Length of Day
11h 30m
Last Quarter, 45% of the Moon is Illuminated
Oct 8
Last Quarter
Oct 15
New
Oct 21
First Quarter
Oct 29
Full
Nov 6
Last Quarter

Hourly Weather History & Observations

Time (PDT) Temp. Dew Point Humidity Pressure Visibility Wind Dir Wind Speed Gust Speed Precip Events Conditions
12:53 AM 53.1 °F 48.9 °F 86% 30.02 in 10.0 mi NW 3.5 mph - N/A   Clear
1:53 AM 51.1 °F 48.0 °F 89% 30.02 in 10.0 mi WNW 6.9 mph - N/A   Clear
2:53 AM 51.1 °F 48.0 °F 89% 30.03 in 10.0 mi NW 4.6 mph - N/A   Clear
3:53 AM 50.0 °F 46.9 °F 89% 30.02 in 10.0 mi NW 3.5 mph - N/A   Clear
4:53 AM 50.0 °F 46.9 °F 89% 30.03 in 10.0 mi Calm Calm - N/A   Clear
5:53 AM 48.9 °F 46.0 °F 90% 30.02 in 10.0 mi NNW 3.5 mph - N/A   Clear
6:53 AM 48.9 °F 46.0 °F 90% 30.03 in 10.0 mi WNW 4.6 mph - N/A   Clear
7:53 AM 50.0 °F 46.9 °F 89% 30.04 in 10.0 mi NW 3.5 mph - N/A   Clear
8:53 AM 55.9 °F 48.9 °F 77% 30.05 in 10.0 mi Calm Calm - N/A   Clear
9:53 AM 62.1 °F 50.0 °F 65% 30.05 in 10.0 mi Variable 3.5 mph - N/A   Clear
10:53 AM 64.9 °F 48.9 °F 56% 30.05 in 10.0 mi Variable 3.5 mph - N/A   Clear
11:53 AM 68.0 °F 50.0 °F 52% 30.04 in 10.0 mi SW 8.1 mph - N/A   Clear
12:53 PM 68.0 °F 51.1 °F 55% 30.04 in 10.0 mi SSW 10.4 mph - N/A   Clear
1:53 PM 68.0 °F 51.1 °F 55% 30.03 in 10.0 mi WSW 10.4 mph 16.1 mph N/A   Clear
2:53 PM 64.9 °F 53.1 °F 65% 30.02 in 10.0 mi SW 9.2 mph 18.4 mph N/A   Clear
3:53 PM 64.0 °F 53.1 °F 67% 30.02 in 10.0 mi WSW 9.2 mph 18.4 mph N/A   Clear
4:53 PM 64.9 °F 53.1 °F 65% 30.02 in 10.0 mi SSW 6.9 mph - N/A   Clear
5:53 PM 64.0 °F 52.0 °F 65% 30.01 in 10.0 mi South 6.9 mph - N/A   Clear
6:53 PM 59.0 °F 53.1 °F 81% 30.01 in 10.0 mi Calm Calm - N/A   Clear
7:53 PM 57.9 °F 54.0 °F 87% 30.03 in 10.0 mi ESE 5.8 mph - N/A   Clear
8:08 PM 57.2 °F 55.4 °F 94% 30.03 in 10.0 mi East 4.6 mph - N/A   Scattered Clouds
8:17 PM 59.0 °F 55.4 °F 88% 30.03 in 10.0 mi East 5.8 mph - N/A   Mostly Cloudy
8:53 PM 59.0 °F 55.0 °F 87% 30.04 in 10.0 mi East 4.6 mph - N/A   Overcast
9:53 PM 59.0 °F 54.0 °F 83% 30.04 in 10.0 mi North 3.5 mph - N/A   Overcast
10:53 PM 59.0 °F 54.0 °F 83% 30.05 in 10.0 mi Calm Calm - N/A   Overcast
11:53 PM 59.0 °F 54.0 °F 83% 30.05 in 10.0 mi SE 4.6 mph - N/A   Overcast